COSMOS 2569 (703K)

Last updated on Tue Oct 21 2025 00:02:35 GMT+0000 (Coordinated Universal Time)

1 57517U 23114A 25292.05538065 .00000015 00000+0 00000+0 0 9992 2 57517 65.1646 80.7607 0008775 289.1959 70.7070 2.13103818 17122
UTC large
Height (km)
Speed (km/s)
/
Latitude / Longitude
Inclination (degrees)
Orbital Period (minutes)
Azimuth
Elevation
Range (km)
Doppler Factor

Next 0 passes for location: London (51.5072 / 0.1276)

Sorry there are no passes over London.